FW6531 Weather Reports


Display with metric or nautical units.
time (UTC)temp
F
wind
direction
speed
MPH
gust
MPH
rain 1hr
in
rain 24hr
in
rain mn
in
humidity
%
barometer
mb
20260504050525 40 263 2.0 8.0 0.00 0.00 0.00 70 1007.1
20260504050024 40 278 1.0 5.0 0.00 0.00 0.00 71 1007.1
20260504045522 41 206 1.0 5.0 0.00 0.00 0.00 71 1007.0
20260504045021 41 193 2.0 4.0 0.00 0.00 0.00 70 1007.2
20260504044519 41 219 2.0 5.0 0.00 0.00 0.00 70 1007.1
20260504044020 41 215 2.0 6.0 0.00 0.00 0.00 70 1007.1
20260504043519 41 204 3.0 6.0 0.00 0.00 0.00 71 1007.1
20260504043016 40 196 3.0 6.0 0.00 0.00 0.00 71 1007.1
20260504042514 40 239 3.0 6.0 0.00 0.00 0.00 72 1007.1
20260504042013 40 242 2.0 5.0 0.00 0.00 0.00 73 1007.0
20260504041513 39 214 2.0 5.0 0.00 0.00 0.00 73 1007.1
20260504041012 39 215 2.0 4.0 0.00 0.00 0.00 73 1007.2
20260504040511 40 213 2.0 6.0 0.00 0.00 0.00 72 1007.2
20260504040010 40 204 2.0 6.0 0.00 0.00 0.00 71 1007.1
20260504035510 40 252 2.0 4.0 0.00 0.00 0.00 70 1007.0
20260504035008 41 253 1.0 3.0 0.00 0.00 0.00 70 1007.0
20260504034508 41 253 2.0 4.0 0.00 0.00 0.00 69 1007.0
20260504034006 41 254 1.0 4.0 0.00 0.00 0.00 69 1007.0
20260504033507 42 254 2.0 4.0 0.00 0.00 0.00 68 1007.0
20260504033004 42 254 2.0 3.0 0.00 0.00 0.00 67 1006.9
20260504032506 42 255 2.0 4.0 0.00 0.00 0.00 67 1006.9
20260504032004 42 256 2.0 4.0 0.00 0.00 0.00 66 1006.9
20260504031503 43 216 2.0 5.0 0.00 0.00 0.00 65 1006.9
20260504031002 43 211 2.0 5.0 0.00 0.00 0.00 65 1007.0
20260504030502 43 207 1.0 6.0 0.00 0.00 0.00 64 1007.0
20260504030003 44 202 2.0 6.0 0.00 0.00 0.00 63 1006.9
20260504025502 44 264 2.0 7.0 0.00 0.00 0.00 62 1006.9
20260504025002 44 267 2.0 6.0 0.00 0.00 0.00 60 1006.9
20260504024502 45 267 1.0 6.0 0.00 0.00 0.00 60 1006.9
20260504024001 45 267 2.0 6.0 0.00 0.00 0.00 59 1006.9
20260504023501 45 265 2.0 6.0 0.00 0.00 0.00 59 1006.9
20260504023001 45 267 2.0 6.0 0.00 0.00 0.00 59 1007.0
20260504022601 45 269 1.0 6.0 0.00 0.00 0.00 59 1007.0
20260504022000 45 279 2.0 8.0 0.00 0.00 0.00 58 1007.0
20260504021612 45 290 2.0 8.0 0.00 0.00 0.00 58 1007.1
20260504021103 45 263 3.0 8.0 0.00 0.00 0.00 58 1007.0
20260504020601 45 265 4.0 8.0 0.00 0.00 0.00 58 1007.0
20260504020107 45 264 3.0 8.0 0.00 0.01 0.00 58 1006.9
20260504015600 45 265 2.0 7.0 0.00 0.01 0.00 58 1006.8
20260504015100 45 265 3.0 7.0 0.00 0.01 0.00 58 1006.9
20260504014600 45 235 3.0 8.0 0.00 0.01 0.00 57 1006.9
20260504014059 46 264 3.0 7.0 0.00 0.01 0.00 56 1006.9
20260504013559 46 275 2.0 7.0 0.00 0.01 0.00 55 1006.9
20260504013110 46 269 3.0 7.0 0.00 0.01 0.00 55 1006.8
20260504012559 46 259 2.0 7.0 0.00 0.01 0.00 55 1006.8
20260504012058 46 274 2.0 7.0 0.00 0.01 0.00 54 1006.7
20260504011600 46 291 2.0 7.0 0.00 0.01 0.00 53 1006.6
20260504011057 46 271 3.0 7.0 0.00 0.01 0.00 53 1006.5
20260504010558 47 267 3.0 8.0 0.00 0.01 0.00 53 1006.4
20260504010120 47 277 3.0 8.0 0.00 0.01 0.00 52 1006.3
20260504005557 47 328 3.0 9.0 0.00 0.01 0.00 52 1006.3
20260504005056 47 263 2.0 9.0 0.00 0.01 0.00 51 1006.2
20260504004558 47 265 3.0 9.0 0.00 0.01 0.00 51 1006.1
20260504004056 47 263 3.0 9.0 0.00 0.01 0.00 51 1006.1
20260504003556 47 272 3.0 8.0 0.00 0.01 0.00 50 1006.1
20260504003056 47 297 4.0 8.0 0.00 0.01 0.00 50 1005.9
20260504002557 47 270 3.0 10.0 0.00 0.01 0.00 50 1005.8
20260504002055 48 313 5.0 11.0 0.00 0.01 0.00 49 1005.7
20260504001610 48 317 6.0 14.0 0.00 0.01 0.00 49 1005.6
20260504001056 48 324 5.0 14.0 0.00 0.01 0.00 48 1005.5
20260504000553 48 325 6.0 13.0 0.00 0.01 0.00 48 1005.4
20260504000058 48 319 5.0 11.0 0.00 0.01 0.00 48 1005.3
20260503235553 48 306 3.0 11.0 0.00 0.01 0.00 48 1005.2
20260503235052 49 306 3.0 11.0 0.00 0.01 0.00 46 1005.1
20260503234552 49 309 6.0 16.0 0.00 0.01 0.00 46 1005.1
20260503234051 49 304 6.0 17.0 0.00 0.01 0.00 45 1004.9
20260503233555 49 317 9.0 20.0 0.00 0.01 0.00 44 1004.8
20260503233052 49 351 7.0 20.0 0.00 0.01 0.00 44 1004.8
20260503232553 49 321 9.0 19.0 0.00 0.01 0.00 44 1004.7
20260503232051 49 325 7.0 21.0 0.00 0.01 0.00 44 1004.7
20260503231553 50 26 10.0 21.0 0.00 0.01 0.00 43 1004.5
20260503231050 50 334 14.0 30.0 0.00 0.01 0.00 43 1004.4
20260503230553 50 337 18.0 30.0 0.00 0.01 0.00 42 1004.3
20260503230050 50 331 10.0 26.0 0.00 0.01 0.00 43 1004.1
20260503225549 50 313 15.0 26.0 0.00 0.01 0.00 42 1004.0
20260503225052 51 313 14.0 24.0 0.00 0.01 0.00 42 1004.0
20260503224551 51 312 12.0 24.0 0.00 0.01 0.00 42 1003.8
20260503224047 51 300 11.0 25.0 0.00 0.01 0.00 43 1003.8
20260503223548 51 315 11.0 25.0 0.00 0.01 0.00 43 1003.7
20260503223047 51 327 8.0 24.0 0.00 0.01 0.00 44 1003.6
20260503222546 51 310 10.0 22.0 0.00 0.01 0.00 44 1003.5
20260503222046 51 321 9.0 22.0 0.00 0.01 0.00 45 1003.4
20260503221545 51 312 10.0 23.0 0.00 0.01 0.00 43 1003.2
20260503221047 51 325 9.0 23.0 0.00 0.01 0.00 45 1003.1
20260503220546 52 280 6.0 23.0 0.00 0.01 0.00 45 1003.0
20260503220046 52 306 8.0 23.0 0.00 0.01 0.00 45 1003.1
20260503215545 52 290 9.0 21.0 0.00 0.01 0.00 45 1003.0
20260503215044 52 308 12.0 21.0 0.00 0.01 0.00 45 1002.8
20260503214551 52 284 7.0 20.0 0.00 0.01 0.00 46 1002.9
20260503214046 52 274 10.0 20.0 0.00 0.01 0.00 46 1002.8
20260503213543 52 5 6.0 18.0 0.00 0.01 0.00 47 1002.8
20260503213106 52 331 9.0 18.0 0.00 0.01 0.00 46 1002.9
20260503212542 52 308 8.0 14.0 0.00 0.01 0.00 47 1002.8
20260503212045 52 305 6.0 17.0 0.00 0.01 0.00 47 1002.8
20260503211605 52 297 8.0 17.0 0.00 0.01 0.00 46 1002.6
20260503211045 52 316 10.0 19.0 0.00 0.01 0.00 47 1002.7
20260503210540 52 344 11.0 19.0 0.00 0.01 0.00 46 1002.5
20260503210040 52 322 8.0 17.0 0.00 0.01 0.00 48 1002.6
20260503205540 52 325 8.0 17.0 0.00 0.01 0.00 48 1002.6
20260503205043 53 321 7.0 13.0 0.00 0.01 0.00 52 1002.6
20260503204557 53 322 7.0 13.0 0.00 0.01 0.00 50 1002.6
20260503204041 53 347 6.0 15.0 0.00 0.01 0.00 52 1002.6
20260503203537 52 327 7.0 17.0 0.00 0.01 0.00 53 1002.7
20260503203040 52 291 6.0 17.0 0.00 0.01 0.00 53 1002.7
20260503202537 52 331 7.0 18.0 0.00 0.01 0.00 52 1002.7
20260503202039 52 21 6.0 18.0 0.00 0.01 0.00 49 1002.6
20260503201538 52 317 10.0 26.0 0.00 0.01 0.00 50 1002.7
20260503201035 52 313 7.0 26.0 0.00 0.01 0.00 48 1002.6
20260503200534 52 311 9.0 19.0 0.00 0.01 0.00 50 1002.6
20260503200034 52 305 9.0 24.0 0.00 0.01 0.00 50 1002.8
20260503195531 51 5 12.0 24.0 0.00 0.01 0.00 51 1002.8
20260503195029 51 287 12.0 19.0 0.00 0.01 0.00 51 1002.8
20260503194529 51 322 7.0 16.0 0.00 0.01 0.00 55 1002.8
20260503194028 51 22 6.0 16.0 0.00 0.01 0.00 55 1002.9
20260503193528 51 318 8.0 16.0 0.00 0.01 0.00 54 1002.9
20260503193029 50 330 7.0 14.0 0.00 0.01 0.00 55 1002.9
20260503192526 51 22 5.0 16.0 0.00 0.01 0.00 56 1003.0
20260503192026 50 5 7.0 16.0 0.00 0.01 0.00 55 1003.0
20260503191526 50 309 6.0 15.0 0.00 0.01 0.00 59 1003.0
20260503191026 50 38 8.0 15.0 0.00 0.01 0.00 55 1003.0
20260503190525 50 344 4.0 14.0 0.00 0.01 0.00 58 1003.1
20260503190024 50 342 7.0 16.0 0.00 0.01 0.00 57 1003.1
20260503185523 50 304 6.0 16.0 0.00 0.01 0.00 58 1003.2
20260503185025 50 25 5.0 13.0 0.00 0.01 0.00 60 1003.1
20260503184527 50 323 6.0 19.0 0.00 0.01 0.00 60 1003.0
20260503184022 50 337 6.0 19.0 0.00 0.01 0.00 61 1003.1
20260503183520 50 346 9.0 18.0 0.00 0.01 0.00 61 1003.2
20260503183021 50 348 8.0 14.0 0.00 0.01 0.00 62 1003.1
20260503182520 50 30 6.0 12.0 0.00 0.01 0.00 64 1003.2
20260503182020 49 304 6.0 15.0 0.00 0.01 0.00 64 1003.2
20260503181519 49 23 7.0 14.0 0.00 0.01 0.00 64 1003.1
20260503181018 49 312 6.0 16.0 0.00 0.01 0.00 65 1003.3
20260503180518 49 336 8.0 16.0 0.00 0.01 0.00 64 1003.2
20260503180026 49 312 9.0 16.0 0.00 0.01 0.00 64 1003.3
20260503175515 49 319 8.0 19.0 0.00 0.01 0.00 66 1003.3
20260503175014 49 17 10.0 20.0 0.00 0.01 0.00 66 1003.2
20260503174520 48 347 12.0 27.0 0.00 0.01 0.00 66 1003.2
20260503174013 48 323 10.0 27.0 0.00 0.01 0.00 65 1003.3
20260503173514 48 360 12.0 22.0 0.00 0.01 0.00 65 1003.1
20260503173014 48 328 13.0 22.0 0.00 0.01 0.00 67 1003.2
20260503172512 48 22 8.0 29.0 0.00 0.01 0.00 68 1003.2
20260503172012 48 355 9.0 29.0 0.00 0.01 0.00 69 1003.2
20260503171516 48 287 10.0 18.0 0.00 0.01 0.00 70 1003.2
20260503171013 48 350 8.0 17.0 0.00 0.01 0.00 73 1003.2
20260503170511 47 23 11.0 16.0 0.00 0.01 0.00 73 1003.2
20260503053027 43 315 2.0 6.0 0.00 0.06 0.00 94 1008.6
20260503052526 43 325 3.0 8.0 0.00 0.06 0.00 94 1008.6
20260503052025 43 16 3.0 8.0 0.00 0.06 0.00 94 1008.7